User: anonymous   Login
Location: Unspecified
(0.0000°N, 0.0000°E)
Time: 09:28:56
(UTC+00:00)
Language:

SOMP 2 - Orbit

View from above orbital plane
View from above orbital plane
View from above satellite
View from above satellite

Ground track
Ground track

The orbit data is extracted from the following two-line orbital elements,

1 42701U 98067LJ  18267.32375004 +.00056566 +00000-0 +36058-3 0  9995
2 42701 051.6350 207.9890 0001112 229.4121 130.6782 15.75836260077595
Epoch (UTC): 24 September 2018 07:46:12
Eccentricity: 0.0001112
inclination: 51.6350°
perigee height: 341 km
apogee height: 343 km
right ascension of ascending node: 207.9890°
argument of perigee: 229.4121°
revolutions per day: 15.75836260
mean anomaly at epoch: 130.6782°
orbit number at epoch: 7759

The dashed part of the orbit path shows where the satellite is in the earth's shadow,  

DLR